2015-01-11 00:03:26 r, 17.51m,0000000008Hz,0000052322c,0000000.114s,-003.3C,00002195
2015-01-11 00:13:26 r, 17.49m,0000000009Hz,0000051901c,0000000.113s,-003.3C,00002195
2015-01-11 00:23:26 r, 17.48m,0000000009Hz,0000051011c,0000000.111s,-003.3C,00002195
2015-01-11 00:33:26 r, 17.49m,0000000009Hz,0000051613c,0000000.112s,-003.6C,00002195
2015-01-11 00:43:26 r, 17.48m,0000000008Hz,0000051027c,0000000.111s,-003.3C,00002195
2015-01-11 00:53:26 r, 17.45m,0000000009Hz,0000049888c,0000000.108s,-003.6C,00002195
2015-01-11 01:03:26 r, 17.35m,0000000010Hz,0000045431c,0000000.099s,-003.6C,00002195
2015-01-11 01:13:26 r, 17.29m,0000000011Hz,0000042945c,0000000.093s,-003.3C,00002195
2015-01-11 01:23:26 r, 17.16m,0000000012Hz,0000038059c,0000000.083s,-003.3C,00002195
2015-01-11 01:33:26 r, 16.83m,0000000016Hz,0000028151c,0000000.061s,-003.3C,00002195
2015-01-11 01:43:26 r, 17.03m,0000000014Hz,0000033803c,0000000.073s,-003.3C,00002195
2015-01-11 01:53:26 r, 17.32m,0000000011Hz,0000044147c,0000000.096s,-003.3C,00002195
2015-01-11 02:03:26 r, 17.14m,0000000013Hz,0000037604c,0000000.082s,-003.3C,00002195
2015-01-11 02:13:26 r, 16.99m,0000000014Hz,0000032702c,0000000.071s,-003.3C,00002195
2015-01-11 02:23:26 r, 17.06m,0000000013Hz,0000034598c,0000000.075s,-003.0C,00002195
2015-01-11 02:33:26 r, 17.29m,0000000010Hz,0000042917c,0000000.093s,-003.0C,00002195
2015-01-11 02:43:26 r, 17.35m,0000000010Hz,0000045558c,0000000.099s,-003.0C,00002195
2015-01-11 02:53:26 r, 17.41m,0000000010Hz,0000047623c,0000000.103s,-003.3C,00002195
2015-01-11 03:03:26 r, 17.09m,0000000012Hz,0000035621c,0000000.077s,-003.3C,00002195
2015-01-11 03:13:26 r, 16.67m,0000000019Hz,0000024275c,0000000.053s,-003.3C,00002195
2015-01-11 03:23:26 r, 16.82m,0000000017Hz,0000027874c,0000000.060s,-003.0C,00002195
2015-01-11 03:33:26 r, 16.94m,0000000015Hz,0000031034c,0000000.067s,-003.0C,00002195
2015-01-11 03:43:26 r, 16.72m,0000000018Hz,0000025415c,0000000.055s,-003.0C,00002195
2015-01-11 03:53:26 r, 16.65m,0000000019Hz,0000023717c,0000000.051s,-002.6C,00002195
2015-01-11 04:03:26 r, 16.81m,0000000017Hz,0000027670c,0000000.060s,-002.6C,00002195
2015-01-11 04:13:26 r, 17.00m,0000000014Hz,0000032870c,0000000.071s,-002.6C,00002195
2015-01-11 04:23:26 r, 16.81m,0000000017Hz,0000027664c,0000000.060s,-002.6C,00002195
2015-01-11 04:33:26 r, 16.61m,0000000020Hz,0000022840c,0000000.050s,-002.6C,00002195
2015-01-11 04:43:26 r, 16.43m,0000000023Hz,0000019530c,0000000.042s,-002.3C,00002195
2015-01-11 04:53:26 r, 16.60m,0000000020Hz,0000022715c,0000000.049s,-002.3C,00002195
2015-01-11 05:03:26 r, 16.65m,0000000020Hz,0000023865c,0000000.052s,-002.3C,00002195
2015-01-11 05:13:26 r, 16.84m,0000000016Hz,0000028189c,0000000.061s,-002.3C,00002195
2015-01-11 05:23:26 r, 16.97m,0000000014Hz,0000031992c,0000000.069s,-002.3C,00002195
2015-01-11 05:33:26 r, 16.97m,0000000015Hz,0000031890c,0000000.069s,-002.3C,00002195
2015-01-11 05:43:26 r, 17.30m,0000000011Hz,0000043427c,0000000.094s,-002.3C,00002195
2015-01-11 05:53:26 r, 17.30m,0000000011Hz,0000043270c,0000000.094s,-002.6C,00002195
2015-01-11 06:03:26 r, 17.44m,0000000009Hz,0000048926c,0000000.106s,-002.6C,00002195
2015-01-11 06:13:26 r, 17.44m,0000000010Hz,0000048954c,0000000.106s,-002.6C,00002195
2015-01-11 06:23:26 r, 17.44m,0000000010Hz,0000049188c,0000000.107s,-003.0C,00002195
2015-01-11 06:33:26 r, 17.45m,0000000009Hz,0000049838c,0000000.108s,-003.0C,00002195
2015-01-11 06:43:26 r, 17.45m,0000000009Hz,0000049810c,0000000.108s,-003.0C,00002195
2015-01-11 06:53:26 r, 17.44m,0000000009Hz,0000049157c,0000000.107s,-003.0C,00002195
2015-01-11 07:03:26 r, 17.38m,0000000010Hz,0000046792c,0000000.102s,-003.0C,00002195
2015-01-11 07:13:26 r, 17.16m,0000000012Hz,0000038328c,0000000.083s,-003.3C,00002195
2015-01-11 07:23:26 r, 16.57m,0000000020Hz,0000022136c,0000000.048s,-003.3C,00002195
2015-01-11 07:33:26 r, 15.39m,0000000062Hz,0000007431c,0000000.016s,-003.3C,00002195
2015-01-11 07:43:26 r, 13.58m,0000000331Hz,0000000000c,0000000.000s,-003.3C,00002195
2015-01-11 07:53:26 r, 11.67m,0000001907Hz,0000000000c,0000000.000s,-003.3C,00002195
2015-01-11 08:03:26 r, 09.95m,0000009294Hz,0000000000c,0000000.000s,-003.3C,00002195
2015-01-11 08:13:26 r, 08.53m,0000034603Hz,0000000000c,0000000.000s,-003.3C,00002195
2015-01-11 08:23:26 r, 07.51m,0000088074Hz,0000000000c,0000000.000s,-003.3C,00002195
2015-01-11 08:33:26 r, 06.78m,0000173136Hz,0000000000c,0000000.000s,-003.3C,00002195
2015-01-11 08:43:26 r, 06.26m,0000279787Hz,0000000000c,0000000.000s,-003.3C,00002195
2015-01-11 08:53:26 r, 05.90m,0000387679Hz,0000000000c,0000000.000s,-003.3C,00002195
2015-01-11 09:03:26 r, 00.00m,0000492122Hz,0000000000c,0000000.000s,-003.0C,00002195
2015-01-11 09:13:26 r, 00.00m,0000559908Hz,0000000000c,0000000.000s,-003.0C,00002195
2015-01-11 09:23:26 r, 00.00m,0000560026Hz,0000000000c,0000000.000s,-002.6C,00002195
2015-01-11 09:33:26 r, 00.00m,0000560063Hz,0000000000c,0000000.000s,-002.0C,00002195
2015-01-11 09:43:26 r, 00.00m,0000560254Hz,0000000000c,0000000.000s,-000.7C,00002195
2015-01-11 09:53:26 r, 00.00m,0000560421Hz,0000000000c,0000000.000s, 000.6C,00002195
2015-01-11 10:03:26 r, 00.00m,0000560718Hz,0000000000c,0000000.000s, 001.9C,00002195
2015-01-11 10:13:26 r, 00.00m,0000560845Hz,0000000000c,0000000.000s, 002.5C,00002195
2015-01-11 10:23:26 r, 00.00m,0000560926Hz,0000000000c,0000000.000s, 003.5C,00002195
2015-01-11 10:33:26 r, 00.00m,0000561024Hz,0000000000c,0000000.000s, 003.8C,00002195
2015-01-11 10:43:26 r, 00.00m,0000561031Hz,0000000000c,0000000.000s, 004.1C,00002195
2015-01-11 10:53:26 r, 00.00m,0000561207Hz,0000000000c,0000000.000s, 004.8C,00002195
2015-01-11 11:03:26 r, 00.00m,0000561090Hz,0000000000c,0000000.000s, 004.8C,00002195
2015-01-11 11:13:26 r, 00.00m,0000561228Hz,0000000000c,0000000.000s, 004.8C,00002195
2015-01-11 11:23:26 r, 00.00m,0000561173Hz,0000000000c,0000000.000s, 005.1C,00002195
2015-01-11 11:33:26 r, 00.00m,0000561214Hz,0000000000c,0000000.000s, 005.1C,00002195
2015-01-11 11:43:26 r, 00.00m,0000561311Hz,0000000000c,0000000.000s, 005.1C,00002195
2015-01-11 11:53:26 r, 00.00m,0000561312Hz,0000000000c,0000000.000s, 005.1C,00002195
2015-01-11 12:03:26 r, 00.00m,0000561268Hz,0000000000c,0000000.000s, 005.4C,00002195
2015-01-11 12:13:26 r, 00.00m,0000561331Hz,0000000000c,0000000.000s, 005.8C,00002195
2015-01-11 12:23:26 r, 00.00m,0000561287Hz,0000000000c,0000000.000s, 005.8C,00002195
2015-01-11 12:33:26 r, 00.00m,0000561404Hz,0000000000c,0000000.000s, 006.1C,00002195
2015-01-11 12:43:26 r, 00.00m,0000561430Hz,0000000000c,0000000.000s, 006.4C,00002195
2015-01-11 12:53:26 r, 00.00m,0000561480Hz,0000000000c,0000000.000s, 006.4C,00002195
2015-01-11 13:03:26 r, 00.00m,0000561420Hz,0000000000c,0000000.000s, 006.4C,00002195
2015-01-11 13:13:26 r, 00.00m,0000561396Hz,0000000000c,0000000.000s, 006.7C,00002195
2015-01-11 13:23:26 r, 00.00m,0000561498Hz,0000000000c,0000000.000s, 006.7C,00002195
2015-01-11 13:33:26 r, 00.00m,0000561506Hz,0000000000c,0000000.000s, 006.7C,00002195
2015-01-11 13:43:26 r, 00.00m,0000561455Hz,0000000000c,0000000.000s, 007.0C,00002195
2015-01-11 13:53:26 r, 00.00m,0000561509Hz,0000000000c,0000000.000s, 007.4C,00002195
2015-01-11 14:03:26 r, 00.00m,0000561569Hz,0000000000c,0000000.000s, 007.7C,00002195
2015-01-11 14:13:26 r, 00.00m,0000561323Hz,0000000000c,0000000.000s, 006.4C,00002195
2015-01-11 14:23:26 r, 00.00m,0000561075Hz,0000000000c,0000000.000s, 005.1C,00002195
2015-01-11 14:33:26 r, 00.00m,0000560909Hz,0000000000c,0000000.000s, 004.1C,00002195
2015-01-11 14:43:26 r, 00.00m,0000560947Hz,0000000000c,0000000.000s, 003.2C,00002195
2015-01-11 14:53:26 r, 00.00m,0000560811Hz,0000000000c,0000000.000s, 002.9C,00002195
2015-01-11 15:03:26 r, 00.00m,0000560668Hz,0000000000c,0000000.000s, 002.2C,00002195
2015-01-11 15:13:26 r, 00.00m,0000560658Hz,0000000000c,0000000.000s, 001.9C,00002195
2015-01-11 15:23:26 r, 00.00m,0000560662Hz,0000000000c,0000000.000s, 001.9C,00002195
2015-01-11 15:33:26 r, 00.00m,0000560709Hz,0000000000c,0000000.000s, 001.9C,00002195
2015-01-11 15:43:26 r, 00.00m,0000560767Hz,0000000000c,0000000.000s, 001.9C,00002195
2015-01-11 15:53:26 r, 00.00m,0000560732Hz,0000000000c,0000000.000s, 001.9C,00002195
2015-01-11 16:03:26 r, 00.00m,0000548516Hz,0000000000c,0000000.000s, 001.6C,00002195
2015-01-11 16:13:26 r, 00.00m,0000444618Hz,0000000000c,0000000.000s, 001.6C,00002195
2015-01-11 16:23:26 r, 06.03m,0000344457Hz,0000000000c,0000000.000s, 001.6C,00002195
2015-01-11 16:33:26 r, 06.14m,0000311741Hz,0000000000c,0000000.000s, 001.6C,00002195
2015-01-11 16:43:26 r, 06.62m,0000200050Hz,0000000000c,0000000.000s, 001.6C,00002195
2015-01-11 16:53:26 r, 07.47m,0000091419Hz,0000000000c,0000000.000s, 001.6C,00002195
2015-01-11 17:03:26 r, 08.64m,0000031122Hz,0000000000c,0000000.000s, 001.6C,00002195
2015-01-11 17:13:26 r, 10.11m,0000008011Hz,0000000000c,0000000.000s, 001.6C,00002195
2015-01-11 17:23:26 r, 11.93m,0000001502Hz,0000000000c,0000000.000s, 001.9C,00002195
2015-01-11 17:33:26 r, 14.10m,0000000204Hz,0000000000c,0000000.000s, 001.9C,00002195
2015-01-11 17:43:26 r, 15.31m,0000000067Hz,0000006920c,0000000.015s, 001.9C,00002195
2015-01-11 17:53:26 r, 15.79m,0000000043Hz,0000010782c,0000000.023s, 001.6C,00002195
2015-01-11 18:03:26 r, 16.86m,0000000016Hz,0000028783c,0000000.062s, 001.6C,00002195
2015-01-11 18:13:26 r, 17.33m,0000000010Hz,0000044281c,0000000.096s, 001.6C,00002195
2015-01-11 18:23:26 r, 17.42m,0000000010Hz,0000048054c,0000000.104s, 001.2C,00002195
2015-01-11 18:33:26 r, 17.44m,0000000010Hz,0000048907c,0000000.106s, 001.2C,00002195
2015-01-11 18:43:26 r, 17.44m,0000000010Hz,0000048697c,0000000.106s, 000.9C,00002195
2015-01-11 18:53:26 r, 17.43m,0000000010Hz,0000048630c,0000000.106s, 000.6C,00002195
2015-01-11 19:03:26 r, 17.44m,0000000009Hz,0000048841c,0000000.106s, 000.6C,00002195
2015-01-11 19:13:26 r, 17.44m,0000000009Hz,0000049208c,0000000.107s, 000.3C,00002195
2015-01-11 19:23:26 r, 17.44m,0000000010Hz,0000049364c,0000000.107s, 000.3C,00002195
2015-01-11 19:33:26 r, 17.45m,0000000009Hz,0000049776c,0000000.108s, 000.1C,00002195
2015-01-11 19:43:26 r, 17.45m,0000000009Hz,0000049776c,0000000.108s, 000.1C,00002195
2015-01-11 19:53:26 r, 17.44m,0000000009Hz,0000049330c,0000000.107s,-000.4C,00002195
2015-01-11 20:03:26 r, 17.46m,0000000009Hz,0000050097c,0000000.109s,-000.7C,00002195
2015-01-11 20:13:26 r, 17.46m,0000000010Hz,0000050178c,0000000.109s,-000.7C,00002195
2015-01-11 20:23:26 r, 17.46m,0000000009Hz,0000050298c,0000000.109s,-001.0C,00002195
2015-01-11 20:33:26 r, 17.46m,0000000009Hz,0000050335c,0000000.109s,-001.0C,00002195
2015-01-11 20:43:26 r, 17.46m,0000000009Hz,0000050073c,0000000.109s,-001.0C,00002195
2015-01-11 20:53:26 r, 17.48m,0000000009Hz,0000050980c,0000000.111s,-001.0C,00002195
2015-01-11 21:03:26 r, 17.48m,0000000009Hz,0000051060c,0000000.111s,-001.0C,00002195
2015-01-11 21:13:26 r, 17.48m,0000000009Hz,0000051070c,0000000.111s,-001.0C,00002195
2015-01-11 21:23:26 r, 17.49m,0000000009Hz,0000051558c,0000000.112s,-001.3C,00002195
2015-01-11 21:33:26 r, 17.49m,0000000008Hz,0000051313c,0000000.111s,-001.3C,00002195
2015-01-11 21:43:26 r, 17.49m,0000000009Hz,0000051674c,0000000.112s,-001.3C,00002195
2015-01-11 21:53:26 r, 17.49m,0000000009Hz,0000051696c,0000000.112s,-001.3C,00002195
2015-01-11 22:03:26 r, 17.49m,0000000009Hz,0000051932c,0000000.113s,-001.7C,00002195
2015-01-11 22:13:26 r, 17.51m,0000000009Hz,0000052418c,0000000.114s,-001.7C,00002195
2015-01-11 22:23:26 r, 17.51m,0000000009Hz,0000052873c,0000000.115s,-001.7C,00002195
2015-01-11 22:33:26 r, 17.51m,0000000009Hz,0000052778c,0000000.115s,-002.0C,00002195
2015-01-11 22:43:26 r, 17.51m,0000000008Hz,0000052843c,0000000.115s,-002.0C,00002195
2015-01-11 22:53:26 r, 17.51m,0000000009Hz,0000052986c,0000000.115s,-002.3C,00002195
2015-01-11 23:03:26 r, 17.53m,0000000009Hz,0000053647c,0000000.116s,-002.3C,00002195
2015-01-11 23:13:26 r, 17.53m,0000000009Hz,0000053748c,0000000.117s,-002.3C,00002195
2015-01-11 23:23:26 r, 17.54m,0000000008Hz,0000053773c,0000000.117s,-002.6C,00002195
2015-01-11 23:33:26 r, 17.53m,0000000008Hz,0000053758c,0000000.117s,-002.6C,00002195
2015-01-11 23:43:26 r, 17.53m,0000000008Hz,0000053627c,0000000.116s,-002.6C,00002195
2015-01-11 23:53:26 r, 17.53m,0000000009Hz,0000053706c,0000000.117s,-002.6C,00002195
